Tiempo atmosférico en la estación meteorológica de Marbella, Málaga (2 m.)



Fecha
DESCASC
Temp. máxima en grados centígrados (hora)
DESCASC
Temp. mínima en grados centígrados (hora)
DESCASC
Temp. media en grados centígrados
DESCASC
Racha de viento máxima en m/sg (hora)
DESCASC
Velocidad máxima media en intervalos de 10 minutos(hora)
DESCASC
Precipitaciones diarias en mm
DESCASC
Precipitaciones de 00:00 a 06:00 en mm
DESCASC
Precipitaciones de 06:00 a 12:00 en mm
DESCASC
Precipitaciones de 12:00 a 18:00 en mm
DESCASC
Precipitaciones de 18:00 a 24:00 en mm
DESCASC
05-04-2020 15 (13:00) 10.7 (04:40) 12.8 8.33 (01:30) 6.39 (15:30) 0 0 0 0 0
04-04-2020 16.2 (18:40) 11.3 (03:40) 13.8 13.89 (10:40) 11.39 (10:40) 0.4 0 0 0.4 0
03-04-2020 15.2 (10:20) 8 (03:40) 11.6 10.83 (14:10) 9.17 (14:20) 0 0 0 0 0
02-04-2020 13.6 (18:50) 7.1 (00:00) 10.4 14.44 (14:10) 8.33 (07:50) 6.2 0 4.8 1.4 0
01-04-2020 14.1 (18:50) 9.7 (00:00) 11.9 16.11 (20:30) 13.33 (20:30) 0.2 0 0.2 0 0
31-03-2020 13.4 (18:00) 10.2 (00:00) 11.8 13.33 (08:00) 10.56 (08:00) 46 14.6 18.8 10.6 2
30-03-2020 -- (--) -- (--) -- -- (--) -- (--) -- -- -- -- 0
29-03-2020 -- (--) -- (--) -- -- (--) -- (--) -- -- -- -- --
28-03-2020 -- (--) -- (--) -- -- (--) -- (--) -- -- -- -- --
27-03-2020 -- (--) -- (--) -- -- (--) -- (--) -- -- -- -- --
26-03-2020 -- (--) -- (--) -- -- (--) -- (--) -- -- -- -- --
25-03-2020 -- (--) -- (--) -- -- (--) -- (--) -- -- -- -- --
24-03-2020 -- (--) -- (--) -- -- (--) -- (--) -- -- -- -- --
23-03-2020 -- (--) -- (--) -- -- (--) -- (--) -- -- -- -- --
22-03-2020 -- (--) -- (--) -- -- (--) -- (--) -- -- -- -- --
21-03-2020 -- (--) -- (--) -- -- (--) -- (--) -- 16.4 0 3 --
20-03-2020 18.7 (15:30) 15.5 (00:00) 17.1 12.78 (06:30) 10.28 (23:59) 0 0 0 0 0
19-03-2020 17.4 (17:20) 15.5 (00:00) 16.4 12.78 (12:10) 10.56 (12:10) 0 0 0 0 0
18-03-2020 18 (16:10) 16.5 (00:00) 17.3 21.39 (01:00) 17.22 (01:00) 0 0 0 0 0
17-03-2020 16.7 (23:50) 10 (00:00) 13.4 14.72 (13:30) 12.5 (13:30) 2.4 0 2 0.4 0
16-03-2020 17.8 (11:10) 13.3 (00:00) 15.5 16.11 (17:50) 12.22 (17:10) 0 0 0 0 0
15-03-2020 17.4 (14:20) 13.7 (00:00) 15.5 8.06 (14:00) 6.11 (14:00) 0 0 0 0 0
14-03-2020 18.6 (16:20) 14.6 (00:00) 16.6 8.33 (00:10) 6.39 (00:10) 0 0 0 0 0
13-03-2020 20.3 (15:30) 14.5 (05:50) 17.4 10 (20:20) 8.61 (19:30) 0 0 0 0 0
12-03-2020 21.2 (10:30) 14.4 (00:00) 17.8 5.56 (11:00) 5 (11:00) 0 0 0 0 0
11-03-2020 20 (15:50) 14.9 (00:00) 17.4 10.56 (14:40) 10 (14:40) 0 0 0 0 0

Gráficas

Temp. máximas Temp. mínimas Temp. medias Precipitaciones Rachas de viento máximas Velocidades máximas media en intervalos de 10 minutos

Datos horarios

Fecha y hora oficial Temperatura (ºC) Velocidad del viento (km/h) Dirección del viento Racha (km/h) Dirección de racha Precipitación (mm) Presión (hPa) Tendencia (hPa) Humedad (%)
2020-04-09 23:00:00 -- -- -- -- -- -- -- -- --
2020-04-09 22:00:00 13.4 11 Este 13 Este 0 -- -- --
2020-04-09 21:00:00 13.3 6 Nordeste 17 Nordeste 0 -- -- --
2020-04-09 20:00:00 13.7 9 Nordeste 19 Este 0 -- -- --
2020-04-09 19:00:00 13.8 12 Este 19 Este 0 -- -- --
2020-04-09 18:00:00 13.9 14 Este 20 Este 0 -- -- --
2020-04-09 17:00:00 14.1 14 Este 26 Este 0 -- -- --
2020-04-09 16:00:00 14.1 19 Este 30 Nordeste 0 -- -- --
2020-04-09 15:00:00 14.2 19 Nordeste 28 Este 0 -- -- --
2020-04-09 14:00:00 14.2 20 Nordeste 25 Nordeste 0 -- -- --
2020-04-09 13:00:00 14.2 18 Este 22 Este 0 -- -- --
2020-04-09 12:00:00 13.8 17 Nordeste 23 Este 0 -- -- --
2020-04-09 11:00:00 13.7 13 Nordeste 19 Nordeste 0 -- -- --
2020-04-09 10:00:00 13.1 9 Nordeste 17 Nordeste 0 -- -- --
2020-04-09 09:00:00 12.5 8 Norte 16 Norte 0 -- -- --
2020-04-09 08:00:00 12.3 8 Nordeste 13 Nordeste 0 -- -- --
2020-04-09 07:00:00 12.3 8 Nordeste 13 Nordeste 0 -- -- --
2020-04-09 06:00:00 12.4 9 Nordeste 15 Nordeste 0 -- -- --
2020-04-09 05:00:00 12.5 9 Nordeste 19 Nordeste 0 -- -- --
2020-04-09 04:00:00 12.6 10 Nordeste 18 Nordeste 0 -- -- --
2020-04-09 03:00:00 12.7 13 Nordeste 21 Nordeste 0 -- -- --
2020-04-09 02:00:00 12.8 10 Nordeste 17 Norte 0 -- -- --
2020-04-09 01:00:00 12.6 11 Norte 14 Norte 0 -- -- --
2020-04-09 00:00:00 12.7 7 Nordeste 18 Nordeste 0 -- -- --
2020-04-08 23:00:00 12.8 10 Nordeste 21 Nordeste 0 -- -- --
2020-04-08 22:00:00 13 9 Nordeste 18 Nordeste 0 -- -- --
2020-04-08 21:00:00 13 13 Nordeste 21 Este 0 -- -- --
2020-04-08 20:00:00 13 19 Nordeste 23 Este 0 -- -- --
2020-04-08 19:00:00 13.7 20 Este 26 Este 0 -- -- --
2020-04-08 18:00:00 14.3 20 Este 26 Nordeste 0 -- -- --
2020-04-08 17:00:00 14.2 22 Este 27 Este 0 -- -- --
2020-04-08 16:00:00 14.1 24 Nordeste 28 Este 0 -- -- --
2020-04-08 15:00:00 14.2 22 Este 31 Este 0 -- -- --
2020-04-08 14:00:00 13.8 23 Este 29 Este 0 -- -- --
2020-04-08 13:00:00 14.4 23 Este 28 Este 0 -- -- --
2020-04-08 12:00:00 13.4 22 Este 27 Este 0 -- -- --
2020-04-08 11:00:00 13.3 24 Este 27 Este 0 -- -- --
2020-04-08 10:00:00 12.9 21 Este 24 Este 0 -- -- --
2020-04-08 09:00:00 12.8 19 Este 22 Este 0 -- -- --
2020-04-08 08:00:00 12.6 20 Este 22 Este 0 -- -- --
2020-04-08 07:00:00 12.6 16 Nordeste 22 Este 0 -- -- --
2020-04-08 06:00:00 12.5 13 Nordeste 22 Norte 0 -- -- --
2020-04-08 05:00:00 12.2 9 Nordeste 15 Nordeste 0 -- -- --
2020-04-08 04:00:00 12 6 Nordeste 15 Nordeste 0 -- -- --
2020-04-08 03:00:00 12.1 10 Nordeste 14 Nordeste 0 -- -- --
2020-04-08 02:00:00 12 9 Nordeste 13 Nordeste 0 -- -- --
2020-04-08 01:00:00 12.5 7 Nordeste 14 Nordeste 0 -- -- --
2020-04-08 00:00:00 12.6 10 Nordeste 14 Nordeste 0 -- -- --
2020-04-07 23:00:00 12.4 9 Nordeste 14 Nordeste 0 -- -- --
2020-04-07 22:00:00 12.4 9 Nordeste 11 Nordeste 0 -- -- --
2020-04-07 21:00:00 13 6 Nordeste 14 Este 0 -- -- --
2020-04-07 20:00:00 13.5 13 Nordeste 15 Este 0 -- -- --
2020-04-07 19:00:00 14.1 14 Este 20 Este 0 -- -- --
2020-04-07 18:00:00 13.9 17 Este 19 Este 0 -- -- --
2020-04-07 17:00:00 14.2 15 Este 22 Este 0 -- -- --
2020-04-07 16:00:00 14 17 Este 22 Este 0 -- -- --
2020-04-07 15:00:00 13.9 18 Nordeste 21 Este 0 -- -- --
2020-04-07 14:00:00 13.9 15 Nordeste 18 Nordeste 0 -- -- --
2020-04-07 13:00:00 13.1 16 Este 19 Nordeste 0 -- -- --
2020-04-07 12:00:00 13.1 15 Nordeste 21 Nordeste 0 -- -- --
2020-04-07 11:00:00 12.9 15 Nordeste 18 Nordeste 0 -- -- --
2020-04-07 10:00:00 13 12 Nordeste 15 Nordeste 0 -- -- --
2020-04-07 09:00:00 12 8 Nordeste 13 Nordeste 0 -- -- --
2020-04-07 08:00:00 11.5 6 Nordeste 14 Nordeste 0 -- -- --
2020-04-07 07:00:00 11.6 7 Nordeste 12 Nordeste 0 -- -- --
2020-04-07 06:00:00 11.5 7 Nordeste 12 Norte 0 -- -- --
2020-04-07 05:00:00 11.7 7 Nordeste 13 Nordeste 0 -- -- --
2020-04-07 04:00:00 11.8 8 Nordeste 12 Nordeste 0 -- -- --
2020-04-07 03:00:00 11.8 9 Nordeste 13 Nordeste 0 -- -- --
2020-04-07 02:00:00 12.1 8 Nordeste 15 Nordeste 0 -- -- --
2020-04-07 01:00:00 12.7 6 Nordeste 10 Nordeste 0 -- -- --
2020-04-07 00:00:00 12.9 5 Nordeste 10 Este 0 -- -- --
2020-04-06 23:00:00 13 4 Nordeste 5 Nordeste 0 -- -- --
2020-04-06 22:00:00 13.1 0 Calma 0 Calma 0 -- -- --
2020-04-06 21:00:00 13.3 0 Calma 4 Sur 0 -- -- --
2020-04-06 20:00:00 13.6 4 Sudeste 7 Este 0 -- -- --
2020-04-06 19:00:00 14.2 5 Sudeste 9 Sudeste 0 -- -- --
2020-04-06 18:00:00 14.2 7 Sudeste 9 Sudeste 0 -- -- --
2020-04-06 17:00:00 13.8 8 Sudeste 13 Este 0 -- -- --
2020-04-06 16:00:00 14.5 10 Este 17 Este 0 -- -- --
2020-04-06 15:00:00 14.4 13 Este 17 Este 0 -- -- --
2020-04-06 14:00:00 14.2 13 Este 18 Este 0 -- -- --
2020-04-06 13:00:00 13.9 16 Este 19 Este 0 -- -- --
2020-04-06 12:00:00 14.2 14 Este 17 Nordeste 0 -- -- --
2020-04-06 11:00:00 13.8 13 Este 16 Nordeste 0 -- -- --
2020-04-06 10:00:00 13.8 8 Nordeste 14 Nordeste 0 -- -- --
2020-04-06 09:00:00 12 8 Nordeste 12 Nordeste 0 -- -- --
2020-04-06 08:00:00 11.4 6 Norte 12 Norte 0 -- -- --
2020-04-06 07:00:00 11.1 7 Norte 11 Nordeste 0 -- -- --
2020-04-06 06:00:00 10.2 5 Norte 8 Norte 0 -- -- --
2020-04-06 05:00:00 10.5 5 Norte 11 Norte 0 -- -- --
2020-04-06 04:00:00 10.3 6 Norte 9 Norte 0 -- -- --
2020-04-06 03:00:00 10.6 5 Norte 8 Norte 0 -- -- --
2020-04-06 02:00:00 10.8 5 Norte 8 Norte 0 -- -- --
2020-04-06 01:00:00 11.4 6 Norte 10 Nordeste 0 -- -- --
2020-04-06 00:00:00 11.7 8 Nordeste 11 Nordeste 0 -- -- --
2020-04-05 23:00:00 12 8 Nordeste 15 Nordeste 0 -- -- --
2020-04-05 22:00:00 12.7 13 Este 18 Este 0 -- -- --
2020-04-05 21:00:00 12.8 15 Este 19 Nordeste 0 -- -- --
2020-04-05 20:00:00 13.1 17 Este 19 Este 0 -- -- --
2020-04-05 19:00:00 13.5 15 Este 18 Este 0 -- -- --
2020-04-05 18:00:00 14.3 12 Este 19 Este 0 -- -- --
2020-04-05 17:00:00 14.7 17 Este 22 Este 0 -- -- --
2020-04-05 16:00:00 14.1 20 Este 26 Este 0 -- -- --
2020-04-05 15:00:00 14.4 20 Este 26 Este 0 -- -- --
2020-04-05 14:00:00 14.3 19 Este 26 Este 0 -- -- --
2020-04-05 13:00:00 15 16 Nordeste 19 Nordeste 0 -- -- --
2020-04-05 12:00:00 14.9 12 Nordeste 18 Nordeste 0 -- -- --
2020-04-05 11:00:00 14.2 12 Nordeste 19 Nordeste 0 -- -- --
2020-04-05 10:00:00 14 10 Nordeste 16 Nordeste 0 -- -- --
2020-04-05 09:00:00 12.7 8 Nordeste 14 Norte 0 -- -- --
2020-04-05 08:00:00 10.8 8 Norte 12 Nordeste 0 -- -- --
2020-04-05 07:00:00 10.8 8 Norte 14 Nordeste 0 -- -- --
2020-04-05 06:00:00 11 9 Norte 13 Nordeste 0 -- -- --
2020-04-05 05:00:00 11 9 Norte 13 Nordeste 0 -- -- --
2020-04-05 04:00:00 11.2 4 Norte 15 Nordeste 0 -- -- --
2020-04-05 03:00:00 11.6 9 Nordeste 19 Nordeste 0 -- -- --
2020-04-05 02:00:00 12.1 12 Nordeste 30 Nordeste 0 -- -- --
2020-04-05 01:00:00 12.3 14 Nordeste 21 Nordeste 0 -- -- --
2020-04-05 00:00:00 12.2 13 Nordeste 22 Nordeste 0 -- -- --
2020-04-04 23:00:00 12 8 Nordeste 12 Nordeste 0 -- -- --
2020-04-04 22:00:00 12.2 3 Norte 9 Noroeste 0 -- -- --
2020-04-04 21:00:00 13 2 Nordeste 5 Nordeste 0 -- -- --
2020-04-04 20:00:00 13.3 3 Nordeste 6 Nordeste 0 -- -- --
2020-04-04 19:00:00 14.6 0 Calma 7 Sudeste 0 -- -- --
2020-04-04 18:00:00 14.7 7 Sudeste 31 Este 0 -- -- --
2020-04-04 17:00:00 13 26 Nordeste 31 Nordeste 0 -- -- --
2020-04-04 16:00:00 12.3 18 Nordeste 37 Nordeste 0.2 -- -- --
2020-04-04 15:00:00 12.3 28 Nordeste 36 Este 0.2 -- -- --
2020-04-04 14:00:00 13.2 22 Este 31 Este 0 -- -- --
2020-04-04 13:00:00 13 27 Este 39 Este 0 -- -- --
2020-04-04 12:00:00 13.1 33 Este 45 Este 0 -- -- --
2020-04-04 11:00:00 12.7 41 Este 50 Este 0 -- -- --
2020-04-04 10:00:00 12.9 35 Nordeste 49 Nordeste 0 -- -- --
2020-04-04 09:00:00 12.2 36 Este 46 Este 0 -- -- --
2020-04-04 08:00:00 12.1 39 Este 45 Este 0 -- -- --
2020-04-04 07:00:00 12.1 31 Nordeste 41 Este 0 -- -- --
2020-04-04 06:00:00 12.1 34 Nordeste 43 Este 0 -- -- --
2020-04-04 05:00:00 11.7 24 Nordeste 39 Nordeste 0 -- -- --
2020-04-04 04:00:00 11.4 19 Nordeste 28 Nordeste 0 -- -- --
2020-04-04 03:00:00 11.6 21 Nordeste 35 Nordeste 0 -- -- --
2020-04-04 02:00:00 11.8 22 Nordeste 31 Nordeste 0 -- -- --
2020-04-04 01:00:00 11.6 20 Nordeste 28 Nordeste 0 -- -- --
2020-04-04 00:00:00 11.6 15 Nordeste 22 Nordeste 0 -- -- --
2020-04-03 23:00:00 11.8 15 Nordeste 24 Nordeste 0 -- -- --
2020-04-03 22:00:00 12.1 15 Nordeste 25 Nordeste 0 -- -- --
2020-04-03 21:00:00 12.5 18 Nordeste 33 Nordeste 0 -- -- --
2020-04-03 20:00:00 13.5 26 Nordeste 35 Este 0 -- -- --
2020-04-03 19:00:00 13.8 30 Este 37 Este 0 -- -- --
2020-04-03 18:00:00 13.9 26 Este 32 Este 0 -- -- --
2020-04-03 17:00:00 13.8 26 Este 34 Nordeste 0 -- -- --
2020-04-03 16:00:00 13.5 31 Este 36 Este 0 -- -- --
2020-04-03 15:00:00 13.4 32 Este 39 Este 0 -- -- --
2020-04-03 14:00:00 13.6 31 Este 37 Este 0 -- -- --
2020-04-03 13:00:00 13.6 29 Este 35 Este 0 -- -- --
2020-04-03 12:00:00 13.3 27 Este 32 Nordeste 0 -- -- --
2020-04-03 11:00:00 13.4 14 Sur 26 Sudoeste 0 -- -- --
2020-04-03 10:00:00 14.2 10 Noroeste 23 Noroeste 0 -- -- --
2020-04-03 09:00:00 11.9 15 Noroeste 26 Norte 0 -- -- --
2020-04-03 08:00:00 10.5 13 Norte 22 Norte 0 -- -- --
2020-04-03 07:00:00 9.5 9 Noroeste 26 Norte 0 -- -- --
2020-04-03 06:00:00 9.8 12 Nordeste 18 Nordeste 0 -- -- --
2020-04-03 05:00:00 8.3 4 Nordeste 8 Noroeste 0 -- -- --
2020-04-03 04:00:00 8.4 6 Norte 9 Norte 0 -- -- --
2020-04-03 03:00:00 8.3 2 Norte 6 Nordeste 0 -- -- --
2020-04-03 02:00:00 8.1 3 Noroeste 9 Norte 0 -- -- --
2020-04-03 01:00:00 9.2 7 Noroeste 18 Norte 0 -- -- --
2020-04-03 00:00:00 9.9 10 Oeste 15 Oeste 0 -- -- --
2020-04-02 23:00:00 10.9 6 Sudoeste 15 Oeste 0 -- -- --
2020-04-02 22:00:00 10.5 9 Oeste 14 Noroeste 0 -- -- --
2020-04-02 21:00:00 10.6 8 Oeste 14 Noroeste 0 -- -- --
2020-04-02 20:00:00 12.4 10 Oeste 12 Oeste 0 -- -- --
2020-04-02 19:00:00 13.6 0 Calma 14 Sur 0 -- -- --
2020-04-02 18:00:00 12 9 Sur 16 Sudeste 0 -- -- --
2020-04-02 17:00:00 11.9 8 Sudeste 16 Este 0 -- -- --
2020-04-02 16:00:00 10.3 4 Noroeste 18 Norte 0.6 -- -- --
2020-04-02 15:00:00 9.6 7 Noroeste 52 Sur 0.8 -- -- --
2020-04-02 14:00:00 10.2 8 Sur 16 Este 0 -- -- --
2020-04-02 13:00:00 10.6 11 Este 15 Este 0 -- -- --
2020-04-02 12:00:00 10.3 3 Sur 13 Nordeste 0.8 -- -- --
2020-04-02 11:00:00 9.8 7 Nordeste 13 Nordeste 0 -- -- --
2020-04-02 10:00:00 9.8 6 Nordeste 9 Nordeste 0 -- -- 3
2020-04-02 09:00:00 7.1 4 Nordeste 21 Oeste 2.2 -- -- 7
2020-04-02 08:00:00 9 29 Oeste 43 Sudoeste 1.6 -- -- 5
2020-04-02 07:00:00 10.4 28 Sudoeste 36 Sudoeste 0.2 -- -- 5
2020-04-02 06:00:00 10 6 Noroeste 12 Noroeste 0 -- -- 4
2020-04-02 05:00:00 10 0 Calma 20 Sudoeste 0 -- -- 4
2020-04-02 04:00:00 11.4 17 Sudoeste 25 Oeste 0 -- -- 3
2020-04-02 03:00:00 11.5 18 Sudoeste 27 Sudoeste 0 -- -- 2
2020-04-02 02:00:00 11.5 18 Oeste 27 Sudoeste 0 -- -- 3
2020-04-02 01:00:00 10.6 7 Noroeste 28 Sudoeste 0 -- -- 2
2020-04-02 00:00:00 12 26 Sudoeste 30 Sudoeste 0 -- -- 2
2020-04-01 23:00:00 12 22 Sudoeste 28 Sudoeste 0 -- -- 3
2020-04-01 22:00:00 11.8 29 Sudoeste 46 Sudoeste 0 -- -- 2
2020-04-01 21:00:00 12.6 28 Oeste 58 Oeste 0 -- -- --
2020-04-01 20:00:00 13.4 36 Sudoeste 44 Sudoeste 0 -- -- --
2020-04-01 19:00:00 13.9 37 Sudoeste 44 Sudoeste 0 -- -- --
2020-04-01 18:00:00 13.7 36 Sudoeste 42 Sudoeste 0 -- -- --
2020-04-01 17:00:00 13.6 33 Sudoeste 38 Sudoeste 0 -- -- --
2020-04-01 16:00:00 13 26 Sudoeste 35 Sudoeste 0 -- -- --
2020-04-01 15:00:00 12.7 30 Sudoeste 35 Sudoeste 0 -- -- 2
2020-04-01 14:00:00 12.7 17 Sudoeste 20 Sudoeste 0 -- -- 4
2020-04-01 13:00:00 12.5 15 Oeste 17 Oeste 0 -- -- 4
2020-04-01 12:00:00 12.1 14 Sudoeste 20 Sudoeste 0.2 -- -- 4
2020-04-01 11:00:00 12 10 Oeste 13 Oeste 0 -- -- 6
2020-04-01 10:00:00 11.3 7 Noroeste 10 Noroeste 0 -- -- 7
2020-04-01 09:00:00 10.3 7 Noroeste 9 Noroeste 0 -- -- 8
2020-04-01 08:00:00 9.7 4 Noroeste 8 Oeste 0 -- -- 8
2020-04-01 07:00:00 10 6 Noroeste 9 Noroeste 0 -- -- 8
2020-04-01 06:00:00 10.4 5 Norte 6 Norte 0 -- -- 8
2020-04-01 05:00:00 10.5 5 Norte 10 Oeste 0 -- -- 8
2020-04-01 04:00:00 10.5 6 Noroeste 9 Noroeste 0 -- -- 8
2020-04-01 03:00:00 11.5 5 Noroeste 28 Sudoeste 0 -- -- 7
2020-04-01 02:00:00 12.3 23 Sudoeste 30 Sudoeste 0 -- -- 7
2020-04-01 01:00:00 12.1 25 Sudoeste 31 Sudoeste 0 -- -- 7
2020-04-01 00:00:00 12 25 Sudoeste 29 Sudoeste 0.2 -- -- 6
2020-03-31 23:00:00 12.3 28 Sudoeste 35 Sudoeste 0.2 -- -- 6
2020-03-31 22:00:00 12.3 21 Sudoeste 39 Oeste 1 -- -- 6
2020-03-31 21:00:00 13.2 21 Sudoeste 29 Sudoeste 0 -- -- 4
2020-03-31 20:00:00 13.1 27 Sudoeste 32 Sudoeste 0 -- -- 4
2020-03-31 19:00:00 12.8 22 Sudoeste 35 Sudoeste 0.6 -- -- 7
2020-03-31 18:00:00 13.4 23 Sur 28 Sur 0 -- -- 7
2020-03-31 17:00:00 12.9 26 Sur 36 Sur 0.2 -- -- 7
2020-03-31 16:00:00 12.5 29 Sur 35 Sur 0.2 -- -- 8
2020-03-31 15:00:00 12.7 14 Este 17 Este 0 -- -- 8
2020-03-31 14:00:00 12.1 4 Noroeste 21 Oeste 3 -- -- 10
2020-03-31 13:00:00 10.4 9 Oeste 31 Sudoeste 7.2 -- -- 9
2020-03-31 12:00:00 11 25 Sudoeste 45 Sur 2.4 -- -- 9
2020-03-31 11:00:00 11.6 21 Sur 41 Sur 9 -- -- 10
2020-03-31 10:00:00 10.4 16 Sudoeste 39 Sur 6.2 -- -- 8
2020-03-31 09:00:00 11.6 36 Sur 44 Sur 0.6 -- -- 8
2020-03-31 08:00:00 11.8 38 Sudeste 48 Sudeste 0.2 -- -- 7
2020-03-31 07:00:00 11.5 26 Sudeste 36 Sudeste 0.4 -- -- 8
2020-03-31 06:00:00 10.3 14 Nordeste 32 Este 0.8 -- -- 8
2020-03-31 05:00:00 10.5 32 Este 41 Este 0.4 -- -- 7
2020-03-31 04:00:00 10.8 24 Este 30 Este 2.4 -- -- 7
2020-03-31 03:00:00 11 10 Sudeste 19 Este 5.4 -- -- 8
2020-03-31 02:00:00 11.5 11 Sudeste 15 Sudeste 4.4 -- -- 7
2020-03-31 01:00:00 12.2 12 Sur 18 Sudoeste 1.2 -- -- 6
2020-03-31 00:00:00 12.3 6 Nordeste 17 Nordeste 0 -- -- 5
2020-03-30 23:00:00 12.6 12 Nordeste 18 Nordeste 0 -- -- 4
2020-03-30 22:00:00 12.8 11 Nordeste 19 Nordeste 0 -- -- 3
2020-03-30 21:00:00 13.1 6 Nordeste 10 Nordeste 0 -- -- 3
2020-03-30 20:00:00 13.5 5 Este 8 Sur 0 -- -- --
2020-03-30 19:00:00 13.4 7 Sudoeste 9 Sudoeste 0 -- -- 2
2020-03-30 18:00:00 13.3 9 Sudoeste 13 Sudoeste 0 -- -- 2
2020-03-30 17:00:00 -- -- -- -- -- -- -- -- --
2020-03-30 16:00:00 -- -- -- -- -- -- -- -- --
2020-03-30 15:00:00 -- -- -- -- -- -- -- -- --
2020-03-30 14:00:00 -- -- -- -- -- -- -- -- --
2020-03-30 13:00:00 -- -- -- -- -- -- -- -- --
2020-03-30 12:00:00 -- -- -- -- -- -- -- -- --
2020-03-30 11:00:00 -- -- -- -- -- -- -- -- --
2020-03-30 10:00:00 -- -- -- -- -- -- -- -- --
2020-03-30 09:00:00 -- -- -- -- -- -- -- -- --
2020-03-30 08:00:00 -- -- -- -- -- -- -- -- --
2020-03-30 07:00:00 -- -- -- -- -- -- -- -- --
2020-03-30 06:00:00 -- -- -- -- -- -- -- -- --
2020-03-30 05:00:00 -- -- -- -- -- -- -- -- --
2020-03-30 04:00:00 -- -- -- -- -- -- -- -- --
2020-03-30 03:00:00 -- -- -- -- -- -- -- -- --
2020-03-30 02:00:00 -- -- -- -- -- -- -- -- --
2020-03-30 01:00:00 -- -- -- -- -- -- -- -- --
2020-03-30 00:00:00 -- -- -- -- -- -- -- -- --
2020-03-29 23:00:00 -- -- -- -- -- -- -- -- --
2020-03-29 22:00:00 -- -- -- -- -- -- -- -- --
2020-03-29 21:00:00 -- -- -- -- -- -- -- -- --
2020-03-29 20:00:00 -- -- -- -- -- -- -- -- --
2020-03-29 19:00:00 -- -- -- -- -- -- -- -- --
2020-03-29 18:00:00 -- -- -- -- -- -- -- -- --
2020-03-29 17:00:00 -- -- -- -- -- -- -- -- --
2020-03-29 16:00:00 -- -- -- -- -- -- -- -- --
2020-03-29 15:00:00 -- -- -- -- -- -- -- -- --
2020-03-29 14:00:00 -- -- -- -- -- -- -- -- --
2020-03-29 13:00:00 -- -- -- -- -- -- -- -- --
2020-03-29 12:00:00 -- -- -- -- -- -- -- -- --
2020-03-29 11:00:00 -- -- -- -- -- -- -- -- --
2020-03-29 10:00:00 -- -- -- -- -- -- -- -- --
2020-03-29 09:00:00 -- -- -- -- -- -- -- -- --
2020-03-29 08:00:00 -- -- -- -- -- -- -- -- --
2020-03-29 07:00:00 -- -- -- -- -- -- -- -- --
2020-03-29 06:00:00 -- -- -- -- -- -- -- -- --
2020-03-29 05:00:00 -- -- -- -- -- -- -- -- --
2020-03-29 03:00:00 -- -- -- -- -- -- -- -- --
2020-03-29 01:00:00 -- -- -- -- -- -- -- -- --
2020-03-29 00:00:00 -- -- -- -- -- -- -- -- --
2020-03-28 23:00:00 -- -- -- -- -- -- -- -- --
2020-03-28 22:00:00 -- -- -- -- -- -- -- -- --
2020-03-28 21:00:00 -- -- -- -- -- -- -- -- --
2020-03-28 20:00:00 -- -- -- -- -- -- -- -- --
2020-03-28 19:00:00 -- -- -- -- -- -- -- -- --
2020-03-28 18:00:00 -- -- -- -- -- -- -- -- --
2020-03-28 17:00:00 -- -- -- -- -- -- -- -- --
2020-03-28 16:00:00 -- -- -- -- -- -- -- -- --
2020-03-28 15:00:00 -- -- -- -- -- -- -- -- --
2020-03-28 14:00:00 -- -- -- -- -- -- -- -- --
2020-03-28 13:00:00 -- -- -- -- -- -- -- -- --
2020-03-28 12:00:00 -- -- -- -- -- -- -- -- --
2020-03-28 11:00:00 -- -- -- -- -- -- -- -- --
2020-03-28 10:00:00 -- -- -- -- -- -- -- -- --
2020-03-28 09:00:00 -- -- -- -- -- -- -- -- --
2020-03-28 08:00:00 -- -- -- -- -- -- -- -- --
2020-03-28 07:00:00 -- -- -- -- -- -- -- -- --
2020-03-28 06:00:00 -- -- -- -- -- -- -- -- --
2020-03-28 05:00:00 -- -- -- -- -- -- -- -- --
2020-03-28 04:00:00 -- -- -- -- -- -- -- -- --
2020-03-28 03:00:00 -- -- -- -- -- -- -- -- --
2020-03-28 02:00:00 -- -- -- -- -- -- -- -- --
2020-03-28 01:00:00 -- -- -- -- -- -- -- -- --
2020-03-28 00:00:00 -- -- -- -- -- -- -- -- --
2020-03-27 23:00:00 -- -- -- -- -- -- -- -- --
2020-03-27 22:00:00 -- -- -- -- -- -- -- -- --
2020-03-27 21:00:00 -- -- -- -- -- -- -- -- --
2020-03-27 20:00:00 -- -- -- -- -- -- -- -- --
2020-03-27 19:00:00 -- -- -- -- -- -- -- -- --
2020-03-27 18:00:00 -- -- -- -- -- -- -- -- --
2020-03-27 17:00:00 -- -- -- -- -- -- -- -- --
2020-03-27 16:00:00 -- -- -- -- -- -- -- -- --
2020-03-27 15:00:00 -- -- -- -- -- -- -- -- --
2020-03-27 14:00:00 -- -- -- -- -- -- -- -- --
2020-03-27 13:00:00 -- -- -- -- -- -- -- -- --
2020-03-27 12:00:00 -- -- -- -- -- -- -- -- --
2020-03-27 11:00:00 -- -- -- -- -- -- -- -- --
2020-03-27 10:00:00 -- -- -- -- -- -- -- -- --
2020-03-27 09:00:00 -- -- -- -- -- -- -- -- --
2020-03-27 08:00:00 -- -- -- -- -- -- -- -- --
2020-03-27 07:00:00 -- -- -- -- -- -- -- -- --
2020-03-27 06:00:00 -- -- -- -- -- -- -- -- --
2020-03-27 05:00:00 -- -- -- -- -- -- -- -- --
2020-03-27 04:00:00 -- -- -- -- -- -- -- -- --
2020-03-27 03:00:00 -- -- -- -- -- -- -- -- --
2020-03-27 02:00:00 -- -- -- -- -- -- -- -- --
2020-03-27 01:00:00 -- -- -- -- -- -- -- -- --
2020-03-27 00:00:00 -- -- -- -- -- -- -- -- --
2020-03-26 23:00:00 -- -- -- -- -- -- -- -- --
2020-03-26 22:00:00 -- -- -- -- -- -- -- -- --
2020-03-26 21:00:00 -- -- -- -- -- -- -- -- --
2020-03-26 20:00:00 -- -- -- -- -- -- -- -- --
2020-03-26 19:00:00 -- -- -- -- -- -- -- -- --
2020-03-26 18:00:00 -- -- -- -- -- -- -- -- --
2020-03-26 17:00:00 -- -- -- -- -- -- -- -- --
2020-03-26 16:00:00 -- -- -- -- -- -- -- -- --
2020-03-26 15:00:00 -- -- -- -- -- -- -- -- --
2020-03-26 14:00:00 -- -- -- -- -- -- -- -- --
2020-03-26 13:00:00 -- -- -- -- -- -- -- -- --
2020-03-26 12:00:00 -- -- -- -- -- -- -- -- --
2020-03-26 11:00:00 -- -- -- -- -- -- -- -- --
2020-03-26 10:00:00 -- -- -- -- -- -- -- -- --
2020-03-26 09:00:00 -- -- -- -- -- -- -- -- --
2020-03-26 08:00:00 -- -- -- -- -- -- -- -- --
2020-03-26 07:00:00 -- -- -- -- -- -- -- -- --
2020-03-26 06:00:00 -- -- -- -- -- -- -- -- --
2020-03-26 05:00:00 -- -- -- -- -- -- -- -- --
2020-03-26 04:00:00 -- -- -- -- -- -- -- -- --
2020-03-26 03:00:00 -- -- -- -- -- -- -- -- --
2020-03-26 02:00:00 -- -- -- -- -- -- -- -- --
2020-03-26 01:00:00 -- -- -- -- -- -- -- -- --
2020-03-26 00:00:00 -- -- -- -- -- -- -- -- --
2020-03-25 23:00:00 -- -- -- -- -- -- -- -- --
2020-03-25 22:00:00 -- -- -- -- -- -- -- -- --
2020-03-25 21:00:00 -- -- -- -- -- -- -- -- --
2020-03-25 20:00:00 -- -- -- -- -- -- -- -- --
2020-03-25 19:00:00 -- -- -- -- -- -- -- -- --
2020-03-25 18:00:00 -- -- -- -- -- -- -- -- --
2020-03-25 17:00:00 -- -- -- -- -- -- -- -- --
2020-03-25 16:00:00 -- -- -- -- -- -- -- -- --
2020-03-25 15:00:00 -- -- -- -- -- -- -- -- --
2020-03-25 14:00:00 -- -- -- -- -- -- -- -- --
2020-03-25 13:00:00 -- -- -- -- -- -- -- -- --
2020-03-25 12:00:00 -- -- -- -- -- -- -- -- --
2020-03-25 11:00:00 -- -- -- -- -- -- -- -- --
2020-03-25 10:00:00 -- -- -- -- -- -- -- -- --
2020-03-25 09:00:00 -- -- -- -- -- -- -- -- --
2020-03-25 08:00:00 -- -- -- -- -- -- -- -- --
2020-03-25 07:00:00 -- -- -- -- -- -- -- -- --
2020-03-25 06:00:00 -- -- -- -- -- -- -- -- --
2020-03-25 05:00:00 -- -- -- -- -- -- -- -- --
2020-03-25 04:00:00 -- -- -- -- -- -- -- -- --
2020-03-25 03:00:00 -- -- -- -- -- -- -- -- --
2020-03-25 02:00:00 -- -- -- -- -- -- -- -- --
2020-03-25 01:00:00 -- -- -- -- -- -- -- -- --
2020-03-25 00:00:00 -- -- -- -- -- -- -- -- --
2020-03-24 23:00:00 -- -- -- -- -- -- -- -- --
2020-03-24 22:00:00 -- -- -- -- -- -- -- -- --
2020-03-24 21:00:00 -- -- -- -- -- -- -- -- --
2020-03-24 20:00:00 -- -- -- -- -- -- -- -- --
2020-03-24 19:00:00 -- -- -- -- -- -- -- -- --
2020-03-24 18:00:00 -- -- -- -- -- -- -- -- --
2020-03-24 17:00:00 -- -- -- -- -- -- -- -- --
2020-03-24 16:00:00 -- -- -- -- -- -- -- -- --
2020-03-24 15:00:00 -- -- -- -- -- -- -- -- --
2020-03-24 14:00:00 -- -- -- -- -- -- -- -- --
2020-03-24 13:00:00 -- -- -- -- -- -- -- -- --
2020-03-24 12:00:00 -- -- -- -- -- -- -- -- --
2020-03-24 11:00:00 -- -- -- -- -- -- -- -- --
2020-03-24 10:00:00 -- -- -- -- -- -- -- -- --
2020-03-24 09:00:00 -- -- -- -- -- -- -- -- --
2020-03-24 08:00:00 -- -- -- -- -- -- -- -- --
2020-03-24 07:00:00 -- -- -- -- -- -- -- -- --
2020-03-24 06:00:00 -- -- -- -- -- -- -- -- --
2020-03-24 05:00:00 -- -- -- -- -- -- -- -- --
2020-03-24 04:00:00 -- -- -- -- -- -- -- -- --
2020-03-24 03:00:00 -- -- -- -- -- -- -- -- --
2020-03-24 02:00:00 -- -- -- -- -- -- -- -- --
2020-03-24 01:00:00 -- -- -- -- -- -- -- -- --
2020-03-24 00:00:00 -- -- -- -- -- -- -- -- --
2020-03-23 23:00:00 -- -- -- -- -- -- -- -- --
2020-03-23 22:00:00 -- -- -- -- -- -- -- -- --
2020-03-23 21:00:00 -- -- -- -- -- -- -- -- --
2020-03-23 20:00:00 -- -- -- -- -- -- -- -- --
2020-03-23 19:00:00 -- -- -- -- -- -- -- -- --
2020-03-23 18:00:00 -- -- -- -- -- -- -- -- --
2020-03-23 17:00:00 -- -- -- -- -- -- -- -- --
2020-03-23 16:00:00 -- -- -- -- -- -- -- -- --
2020-03-23 15:00:00 -- -- -- -- -- -- -- -- --
2020-03-23 14:00:00 -- -- -- -- -- -- -- -- --
2020-03-23 13:00:00 -- -- -- -- -- -- -- -- --
2020-03-23 12:00:00 -- -- -- -- -- -- -- -- --
2020-03-23 11:00:00 -- -- -- -- -- -- -- -- --
2020-03-23 10:00:00 -- -- -- -- -- -- -- -- --
2020-03-23 09:00:00 -- -- -- -- -- -- -- -- --
2020-03-23 08:00:00 -- -- -- -- -- -- -- -- --
2020-03-23 07:00:00 -- -- -- -- -- -- -- -- --
2020-03-23 06:00:00 -- -- -- -- -- -- -- -- --
2020-03-23 05:00:00 -- -- -- -- -- -- -- -- --
2020-03-23 04:00:00 -- -- -- -- -- -- -- -- --
2020-03-23 03:00:00 -- -- -- -- -- -- -- -- --
2020-03-23 02:00:00 -- -- -- -- -- -- -- -- --
2020-03-23 01:00:00 -- -- -- -- -- -- -- -- --
2020-03-23 00:00:00 -- -- -- -- -- -- -- -- --
2020-03-22 23:00:00 -- -- -- -- -- -- -- -- --
2020-03-22 22:00:00 -- -- -- -- -- -- -- -- --
2020-03-22 21:00:00 -- -- -- -- -- -- -- -- --
2020-03-22 20:00:00 -- -- -- -- -- -- -- -- --
2020-03-22 19:00:00 -- -- -- -- -- -- -- -- --
2020-03-22 18:00:00 -- -- -- -- -- -- -- -- --
2020-03-22 17:00:00 -- -- -- -- -- -- -- -- --
2020-03-22 16:00:00 -- -- -- -- -- -- -- -- --
2020-03-22 15:00:00 -- -- -- -- -- -- -- -- --
2020-03-22 14:00:00 -- -- -- -- -- -- -- -- --
2020-03-22 13:00:00 -- -- -- -- -- -- -- -- --
2020-03-22 12:00:00 -- -- -- -- -- -- -- -- --
2020-03-22 11:00:00 -- -- -- -- -- -- -- -- --
2020-03-22 10:00:00 -- -- -- -- -- -- -- -- --
2020-03-22 09:00:00 -- -- -- -- -- -- -- -- --
2020-03-22 08:00:00 -- -- -- -- -- -- -- -- --
2020-03-22 07:00:00 -- -- -- -- -- -- -- -- --
2020-03-22 06:00:00 -- -- -- -- -- -- -- -- --
2020-03-22 05:00:00 -- -- -- -- -- -- -- -- --
2020-03-22 04:00:00 -- -- -- -- -- -- -- -- --
2020-03-22 03:00:00 -- -- -- -- -- -- -- -- --
2020-03-22 02:00:00 -- -- -- -- -- -- -- -- --
2020-03-22 01:00:00 -- -- -- -- -- -- -- -- --
2020-03-22 00:00:00 -- -- -- -- -- -- -- -- --
2020-03-21 23:00:00 -- -- -- -- -- -- -- -- --
2020-03-21 22:00:00 -- -- -- -- -- -- -- -- --
2020-03-21 21:00:00 14.5 18 Sudoeste 30 Sur 0 -- -- 82
2020-03-21 20:00:00 14.1 20 Sudoeste 35 Sudoeste 0.2 -- -- 85
2020-03-21 19:00:00 13.7 34 Sudoeste 44 Sudoeste 1.2 -- -- 85
2020-03-21 18:00:00 13.2 21 Sudoeste 51 Sudoeste 2 -- -- 88
2020-03-21 17:00:00 13.8 33 Oeste 54 Oeste 1 -- -- 87
2020-03-21 16:00:00 15 33 Oeste 49 Oeste 0 -- -- 71
2020-03-21 15:00:00 16.2 27 Sudoeste 37 Sudoeste 0 -- -- 74
2020-03-21 14:00:00 15.7 13 Sudoeste 25 Sudoeste 0 -- -- 73
2020-03-21 13:00:00 15.4 17 Sudoeste 23 Sudoeste 0 -- -- 71
2020-03-21 12:00:00 15.1 21 Sudoeste 28 Sur 0 -- -- 76
2020-03-21 11:00:00 15.2 17 Sudoeste 24 Sudoeste 0 -- -- 71
2020-03-21 10:00:00 16 5 Sur 9 Sudoeste 0 -- -- 71
2020-03-21 09:00:00 15.4 3 Noroeste 8 Nordeste 0 -- -- 82
2020-03-21 08:00:00 12.4 4 Norte 12 Nordeste 0 -- -- 93
2020-03-21 07:00:00 12.1 11 Nordeste 15 Nordeste 0 -- -- 94
2020-03-21 06:00:00 12.5 8 Nordeste 14 Nordeste 0 -- -- 94
2020-03-21 05:00:00 13.1 4 Nordeste 6 Nordeste 0.2 -- -- 95
2020-03-21 04:00:00 12.7 4 Oeste 16 Oeste 2 -- -- 95
2020-03-21 03:00:00 13.3 15 Sudoeste 38 Este 8.4 -- -- 94
2020-03-21 02:00:00 15.4 28 Este 42 Este 2 -- -- 93
2020-03-21 01:00:00 15.5 32 Este 42 Este 3.8 -- -- 93
2020-03-21 00:00:00 15.8 37 Este 44 Este 0 -- -- 89
2020-03-20 23:00:00 16.1 26 Este 34 Este 0 -- -- 86
2020-03-20 22:00:00 15.6 24 Nordeste 39 Este 0 -- -- 89
2020-03-20 21:00:00 15.7 29 Este 35 Este 0 -- -- 87
2020-03-20 20:00:00 16.1 26 Este 29 Este 0 -- -- 84
2020-03-20 19:00:00 16.1 24 Este 28 Este 0 -- -- 83
2020-03-20 18:00:00 16.4 11 Este 16 Este 0 -- -- 77
2020-03-20 17:00:00 16.9 10 Sudoeste 13 Sudoeste 0 -- -- 75
2020-03-20 16:00:00 17.4 10 Sur 13 Sur 0 -- -- 69
2020-03-20 15:00:00 17.4 5 Este 17 Nordeste 0 -- -- 71
2020-03-20 14:00:00 16.6 14 Este 33 Este 0 -- -- 74
2020-03-20 13:00:00 16.4 23 Nordeste 32 Este 0 -- -- 73
2020-03-20 12:00:00 16.5 22 Nordeste 31 Nordeste 0 -- -- 74
2020-03-20 11:00:00 16.4 27 Nordeste 36 Este 0 -- -- 74
2020-03-20 10:00:00 16.4 21 Nordeste 28 Nordeste 0 -- -- 76
2020-03-20 09:00:00 15.9 22 Este 30 Nordeste 0 -- -- 79
2020-03-20 08:00:00 15.9 22 Este 34 Este 0 -- -- 78
2020-03-20 07:00:00 15.9 29 Este 46 Este 0 -- -- 78
2020-03-20 06:00:00 15.9 31 Este 42 Este 0 -- -- 76
2020-03-20 05:00:00 16 26 Este 35 Este 0 -- -- 75
2020-03-20 04:00:00 16 21 Este 29 Este 0 -- -- 75
2020-03-20 03:00:00 16.1 26 Este 38 Este 0 -- -- 73
2020-03-20 02:00:00 16 27 Este 42 Este 0 -- -- 75
2020-03-20 01:00:00 16.3 36 Este 45 Este 0 -- -- 74
2020-03-20 00:00:00 16.2 31 Este 41 Este 0 -- -- 78
2020-03-19 23:00:00 16.2 26 Este 36 Este 0 -- -- 80
2020-03-19 22:00:00 16.3 26 Este 37 Este 0 -- -- 80
2020-03-19 21:00:00 16.3 14 Nordeste 25 Este 0 -- -- 79
2020-03-19 20:00:00 16.3 18 Nordeste 32 Nordeste 0 -- -- 79
2020-03-19 19:00:00 16.7 21 Nordeste 36 Nordeste 0 -- -- 75
2020-03-19 18:00:00 17 26 Nordeste 33 Este 0 -- -- 74
2020-03-19 17:00:00 17.3 26 Nordeste 40 Este 0 -- -- 74
2020-03-19 16:00:00 17 34 Este 42 Este 0 -- -- 76
2020-03-19 15:00:00 17 32 Este 44 Este 0 -- -- 75
2020-03-19 14:00:00 17.3 27 Este 34 Este 0 -- -- 74
2020-03-19 13:00:00 16.8 31 Este 46 Este 0 -- -- 76
2020-03-19 12:00:00 16.5 36 Este 43 Este 0 -- -- 76
2020-03-19 11:00:00 16.8 24 Este 39 Este 0 -- -- 75
2020-03-19 10:00:00 16.8 22 Este 33 Este 0 -- -- 75
2020-03-19 09:00:00 16.5 18 Este 26 Este 0 -- -- 76
2020-03-19 08:00:00 16.2 14 Este 20 Este 0 -- -- 79
2020-03-19 07:00:00 16.1 13 Este 18 Este 0 -- -- 79
2020-03-19 06:00:00 16.2 13 Este 21 Este 0 -- -- 79
2020-03-19 05:00:00 16.1 13 Este 19 Este 0 -- -- 80
2020-03-19 04:00:00 16 13 Este 16 Este 0 -- -- 81
2020-03-19 03:00:00 15.7 0 Calma 6 Este 0 -- -- 83
2020-03-19 02:00:00 16.1 5 Este 16 Este 0 -- -- 82
2020-03-19 01:00:00 16.2 14 Nordeste 28 Nordeste 0 -- -- 80
2020-03-19 00:00:00 16.5 20 Este 30 Este 0 -- -- 81
2020-03-18 23:00:00 16.8 19 Este 27 Este 0 -- -- 77
2020-03-18 22:00:00 16.8 8 Nordeste 12 Nordeste 0 -- -- 74
2020-03-18 21:00:00 16.8 9 Nordeste 20 Nordeste 0 -- -- 73
2020-03-18 20:00:00 17 13 Nordeste 29 Nordeste 0 -- -- 72
2020-03-18 19:00:00 17.2 18 Nordeste 35 Nordeste 0 -- -- 70
2020-03-18 18:00:00 17.6 21 Nordeste 37 Nordeste 0 -- -- 68
2020-03-18 17:00:00 17.9 23 Nordeste 36 Nordeste 0 -- -- 68
2020-03-18 16:00:00 17.8 25 Nordeste 49 Este 0 -- -- 71
2020-03-18 15:00:00 17.5 32 Este 56 Este 0 -- -- 74
2020-03-18 14:00:00 17.1 44 Este 55 Este 0 -- -- 75
2020-03-18 13:00:00 17.3 37 Este 59 Este 0 -- -- 75
2020-03-18 12:00:00 17.1 52 Este 64 Este 0 -- -- 75
2020-03-18 11:00:00 16.9 51 Este 68 Este 0 -- -- 76
2020-03-18 10:00:00 16.8 43 Este 55 Este 0 -- -- 76
2020-03-18 09:00:00 16.9 26 Este 47 Nordeste 0 -- -- 75
2020-03-18 08:00:00 16.9 24 Nordeste 45 Este 0 -- -- 76
2020-03-18 07:00:00 16.8 22 Nordeste 33 Nordeste 0 -- -- 78
2020-03-18 06:00:00 16.8 22 Nordeste 41 Nordeste 0 -- -- 78
2020-03-18 05:00:00 16.9 33 Nordeste 62 Este 0 -- -- 78
2020-03-18 04:00:00 17.4 44 Nordeste 73 Este 0 -- -- 73
2020-03-18 03:00:00 16.9 48 Este 61 Este 0 -- -- 78
2020-03-18 02:00:00 16.9 48 Este 70 Este 0 -- -- 79
2020-03-18 01:00:00 16.9 62 Este 77 Este 0 -- -- 80
2020-03-18 00:00:00 16.6 27 Este 36 Nordeste 0 -- -- 78
2020-03-17 23:00:00 16.3 16 Nordeste 24 Nordeste 0 -- -- 75
2020-03-17 22:00:00 15.8 13 Nordeste 32 Norte 0 -- -- 77
2020-03-17 21:00:00 15.3 11 Nordeste 24 Nordeste 0 -- -- 80
2020-03-17 20:00:00 15.6 19 Nordeste 32 Este 0 -- -- 78
2020-03-17 19:00:00 15.7 18 Nordeste 34 Este 0 -- -- 77
2020-03-17 18:00:00 15.6 30 Este 41 Este 0.2 -- -- 79
2020-03-17 17:00:00 15.5 32 Este 46 Este 0 -- -- 81
2020-03-17 16:00:00 16 39 Este 51 Este 0 -- -- 73
2020-03-17 15:00:00 16.1 40 Este 49 Este 0 -- -- 69
2020-03-17 14:00:00 15.9 41 Este 53 Este 0 -- -- 71
2020-03-17 13:00:00 15.4 32 Nordeste 42 Nordeste 0.2 -- -- 65
2020-03-17 12:00:00 15.1 22 Este 31 Nordeste 0 -- -- 63
2020-03-17 11:00:00 14.9 17 Nordeste 24 Este 0 -- -- 61
2020-03-17 10:00:00 14 6 Nordeste 14 Noroeste 0 -- -- 68
2020-03-17 09:00:00 11 7 Noroeste 22 Noroeste 0 -- -- 78
2020-03-17 08:00:00 10.1 20 Oeste 43 Oeste 0.6 -- -- 83
2020-03-17 07:00:00 11.5 42 Oeste 52 Sudoeste 1.4 -- -- 85
2020-03-17 06:00:00 12.7 5 Norte 9 Noroeste 0 -- -- 60
2020-03-17 05:00:00 12.4 5 Norte 12 Oeste 0 -- -- 59
2020-03-17 04:00:00 12.4 5 Oeste 12 Sudoeste 0 -- -- 64
2020-03-17 03:00:00 13 4 Norte 7 Norte 0 -- -- 56
2020-03-17 02:00:00 12.4 3 Norte 10 Oeste 0 -- -- 56
2020-03-17 01:00:00 12.9 0 Calma 13 Norte 0 -- -- 52
2020-03-17 00:00:00 13.3 11 Norte 22 Nordeste 0 -- -- 48
2020-03-16 23:00:00 14.2 4 Norte 19 Norte 0 -- -- 48
2020-03-16 22:00:00 15 4 Noroeste 10 Noroeste 0 -- -- 47
2020-03-16 21:00:00 15.3 6 Noroeste 21 Oeste 0 -- -- 44
2020-03-16 20:00:00 15.3 9 Noroeste 21 Oeste 0 -- -- 42
2020-03-16 19:00:00 16.7 14 Oeste 45 Sudoeste 0 -- -- 38
2020-03-16 18:00:00 15.7 33 Sudoeste 58 Sudoeste 0 -- -- 66
2020-03-16 17:00:00 16.4 39 Sudoeste 50 Sudoeste 0 -- -- 60
2020-03-16 16:00:00 16.1 42 Sudoeste 53 Sudoeste 0 -- -- 55
2020-03-16 15:00:00 16.9 32 Oeste 52 Oeste 0 -- -- 45
2020-03-16 14:00:00 16.7 37 Oeste 47 Oeste 0 -- -- 41
2020-03-16 13:00:00 17 10 Sur 26 Sur 0 -- -- 34
2020-03-16 12:00:00 16.5 15 Sur 30 Sur 0 -- -- 36
2020-03-16 11:00:00 16.9 8 Nordeste 23 Noroeste 0 -- -- 33
2020-03-16 10:00:00 15.1 13 Noroeste 26 Noroeste 0 -- -- 27
2020-03-16 09:00:00 14.3 14 Norte 31 Norte 0 -- -- 46
2020-03-16 08:00:00 13.8 17 Norte 28 Norte 0 -- -- 69
2020-03-16 07:00:00 14.7 4 Norte 15 Norte 0 -- -- 84
2020-03-16 06:00:00 14.9 9 Noroeste 12 Oeste 0 -- -- 86
2020-03-16 05:00:00 14.5 3 Oeste 12 Oeste 0 -- -- 87
2020-03-16 04:00:00 15 8 Oeste 12 Oeste 0 -- -- 86
2020-03-16 03:00:00 14.3 8 Oeste 11 Noroeste 0 -- -- 88
2020-03-16 02:00:00 14.2 7 Noroeste 14 Oeste 0 -- -- 88
2020-03-16 01:00:00 13.7 9 Oeste 11 Oeste 0 -- -- 85
2020-03-16 00:00:00 13.7 0 Calma 9 Norte 0 -- -- 86
2020-03-15 23:00:00 14.3 4 Norte 5 Norte 0 -- -- 85
2020-03-15 22:00:00 14.8 5 Noroeste 8 Noroeste 0 -- -- 85
2020-03-15 21:00:00 15 4 Noroeste 8 Noroeste 0 -- -- 84
2020-03-15 20:00:00 15.8 4 Este 12 Este 0 -- -- 84
2020-03-15 19:00:00 16.6 12 Este 15 Este 0 -- -- 81
2020-03-15 18:00:00 16.7 13 Este 18 Este 0 -- -- 79
2020-03-15 17:00:00 17.4 15 Este 21 Este 0 -- -- 75
2020-03-15 16:00:00 17.2 17 Este 22 Este 0 -- -- 77
2020-03-15 15:00:00 16.9 21 Este 28 Este 0 -- -- 78
2020-03-15 14:00:00 17.1 22 Nordeste 29 Nordeste 0 -- -- 74
2020-03-15 13:00:00 16.2 19 Este 24 Este 0 -- -- 85
2020-03-15 12:00:00 16.4 15 Nordeste 24 Nordeste 0 -- -- 83
2020-03-15 11:00:00 16.4 16 Nordeste 20 Este 0 -- -- 81
2020-03-15 10:00:00 16.3 11 Nordeste 17 Este 0 -- -- 81
2020-03-15 09:00:00 16 12 Nordeste 18 Nordeste 0 -- -- 84
2020-03-15 08:00:00 15.9 12 Nordeste 17 Nordeste 0 -- -- 84
2020-03-15 07:00:00 15.7 7 Nordeste 18 Nordeste 0 -- -- 82
2020-03-15 06:00:00 15.9 14 Nordeste 19 Nordeste 0 -- -- 81
2020-03-15 05:00:00 15.9 7 Nordeste 14 Norte 0 -- -- 80
2020-03-15 04:00:00 15.9 11 Nordeste 17 Nordeste 0 -- -- 81
2020-03-15 03:00:00 15.9 8 Nordeste 12 Nordeste 0 -- -- 81
2020-03-15 02:00:00 15.9 9 Nordeste 17 Nordeste 0 -- -- 82
2020-03-15 01:00:00 15.7 10 Nordeste 17 Nordeste 0 -- -- 84
2020-03-15 00:00:00 15.3 8 Nordeste 12 Nordeste 0 -- -- 85
2020-03-14 23:00:00 15.3 8 Nordeste 12 Nordeste 0 -- -- 84
2020-03-14 22:00:00 15.4 5 Nordeste 8 Nordeste 0 -- -- 83
2020-03-14 21:00:00 15.5 4 Nordeste 9 Nordeste 0 -- -- 82
2020-03-14 20:00:00 16.5 8 Este 10 Este 0 -- -- 81
2020-03-14 19:00:00 17.4 8 Este 15 Este 0 -- -- 77
2020-03-14 18:00:00 18.2 13 Este 16 Este 0 -- -- 74
2020-03-14 17:00:00 18.2 13 Este 14 Este 0 -- -- 71
2020-03-14 16:00:00 18.3 13 Este 18 Este 0 -- -- 71
2020-03-14 15:00:00 18.1 17 Este 22 Este 0 -- -- 76
2020-03-14 14:00:00 17.9 19 Este 21 Este 0 -- -- 74
2020-03-14 13:00:00 18 17 Este 20 Este 0 -- -- 73
2020-03-14 12:00:00 17.6 17 Este 21 Este 0 -- -- 73
2020-03-14 11:00:00 18.1 15 Este 21 Este 0 -- -- 71
2020-03-14 10:00:00 17.5 17 Este 22 Este 0 -- -- 72
2020-03-14 09:00:00 16.4 9 Nordeste 13 Nordeste 0 -- -- 77
2020-03-14 08:00:00 14.9 8 Nordeste 12 Norte 0 -- -- 83
2020-03-14 07:00:00 14.8 7 Nordeste 14 Nordeste 0 -- -- 85
2020-03-14 06:00:00 15.4 8 Nordeste 17 Nordeste 0 -- -- 86
2020-03-14 05:00:00 15.7 11 Nordeste 18 Nordeste 0 -- -- 86
2020-03-14 04:00:00 15.8 12 Nordeste 22 Este 0 -- -- 86
2020-03-14 03:00:00 15.9 16 Nordeste 25 Nordeste 0 -- -- 86
2020-03-14 02:00:00 15.7 12 Nordeste 25 Nordeste 0 -- -- 86
2020-03-14 01:00:00 15.9 14 Nordeste 30 Nordeste 0 -- -- 88
2020-03-14 00:00:00 16.1 26 Nordeste 33 Nordeste 0 -- -- 88
2020-03-13 23:00:00 16.3 22 Nordeste 31 Nordeste 0 -- -- 89
2020-03-13 22:00:00 16.5 22 Nordeste 27 Nordeste 0 -- -- 86
2020-03-13 21:00:00 16.9 21 Nordeste 36 Nordeste 0 -- -- 83
2020-03-13 20:00:00 17.3 22 Nordeste 36 Este 0 -- -- 77
2020-03-13 19:00:00 17.4 27 Nordeste 33 Este 0 -- -- 77
2020-03-13 18:00:00 17.8 28 Este 32 Este 0 -- -- 78
2020-03-13 17:00:00 18.1 24 Este 28 Este 0 -- -- 76
2020-03-13 16:00:00 19.4 13 Este 20 Este 0 -- -- 68
2020-03-13 15:00:00 18.3 5 Sudoeste 15 Oeste 0 -- -- 73
2020-03-13 14:00:00 18.7 6 Sudoeste 10 Sudoeste 0 -- -- 71
2020-03-13 13:00:00 17.5 8 Sudoeste 16 Oeste 0 -- -- 78
2020-03-13 12:00:00 16.5 14 Oeste 19 Oeste 0 -- -- 80
2020-03-13 11:00:00 16.6 15 Sudoeste 18 Sudoeste 0 -- -- 79
2020-03-13 10:00:00 16.2 14 Oeste 17 Oeste 0 -- -- 73
2020-03-13 09:00:00 16.1 10 Oeste 13 Oeste 0 -- -- 72
2020-03-13 08:00:00 14.7 9 Oeste 10 Oeste 0 -- -- 67
2020-03-13 07:00:00 14.7 6 Oeste 10 Noroeste 0 -- -- 67
2020-03-13 06:00:00 14.7 9 Oeste 13 Oeste 0 -- -- 64
2020-03-13 05:00:00 14.6 8 Noroeste 14 Oeste 0 -- -- 68
2020-03-13 04:00:00 15.1 7 Noroeste 10 Oeste 0 -- -- 73
2020-03-13 03:00:00 15.5 0 Calma 4 Este 0 -- -- 76
2020-03-13 02:00:00 15.6 0 Calma 4 Nordeste 0 -- -- 70
2020-03-13 01:00:00 15.8 0 Calma 5 Nordeste 0 -- -- 65
2020-03-13 00:00:00 16.7 0 Calma 6 Norte 0 -- -- 64
2020-03-12 23:00:00 16.2 0 Calma 10 Oeste 0 -- -- 59
2020-03-12 22:00:00 18.2 5 Noroeste 10 Oeste 0 -- -- 45
2020-03-12 21:00:00 18 6 Noroeste 9 Oeste 0 -- -- 49
2020-03-12 20:00:00 18 3 Noroeste 11 Oeste 0 -- -- 54
2020-03-12 19:00:00 19.2 11 Oeste 19 Oeste 0 -- -- 58
2020-03-12 18:00:00 18.3 16 Oeste 18 Oeste 0 -- -- 72
2020-03-12 17:00:00 18.2 15 Oeste 17 Oeste 0 -- -- 72
2020-03-12 16:00:00 18.6 9 Oeste 18 Oeste 0 -- -- 72
2020-03-12 15:00:00 18.6 14 Oeste 17 Oeste 0 -- -- 69
2020-03-12 14:00:00 18.1 14 Oeste 16 Oeste 0 -- -- 77
2020-03-12 13:00:00 19.4 3 Sudoeste 15 Oeste 0 -- -- 69
2020-03-12 12:00:00 17.6 16 Oeste 20 Oeste 0 -- -- 73
2020-03-12 11:00:00 17.3 18 Oeste 20 Oeste 0 -- -- 75
2020-03-12 10:00:00 20.3 5 Este 6 Nordeste 0 -- -- 53
2020-03-12 09:00:00 18.9 0 Calma 13 Nordeste 0 -- -- 54
2020-03-12 08:00:00 18.9 11 Nordeste 16 Nordeste 0 -- -- 41
2020-03-12 07:00:00 16.5 0 Calma 12 Nordeste 0 -- -- 51
2020-03-12 06:00:00 16.3 0 Calma 10 Nordeste 0 -- -- 57
2020-03-12 05:00:00 16.8 8 Norte 12 Nordeste 0 -- -- 50
2020-03-12 04:00:00 15.9 7 Nordeste 16 Este 0 -- -- 60
2020-03-12 03:00:00 15.9 5 Nordeste 9 Nordeste 0 -- -- 63
2020-03-12 02:00:00 15.2 0 Calma 4 Nordeste 0 -- -- 64
2020-03-12 01:00:00 14.4 0 Calma 5 Oeste 0 -- -- 69
2020-03-12 00:00:00 14.9 2 Oeste 5 Noroeste 0 -- -- 69
2020-03-11 23:00:00 15.6 4 Noroeste 10 Oeste 0 -- -- 65
2020-03-11 22:00:00 16 8 Oeste 13 Oeste 0 -- -- 63
2020-03-11 21:00:00 16.6 10 Oeste 15 Noroeste 0 -- -- 68
2020-03-11 20:00:00 17.1 5 Sur 17 Oeste 0 -- -- 71
2020-03-11 19:00:00 19.5 13 Este 32 Este 0 -- -- 55
2020-03-11 18:00:00 19.3 28 Este 32 Este 0 -- -- 57
2020-03-11 17:00:00 19.7 29 Este 35 Este 0 -- -- 55
2020-03-11 16:00:00 19.9 29 Este 38 Este 0 -- -- 51
2020-03-11 15:00:00 19.4 34 Este 38 Este 0 -- -- 52
2020-03-11 14:00:00 19 34 Este 37 Este 0 -- -- 54
2020-03-11 13:00:00 18.2 32 Este 34 Este 0 -- -- 57
2020-03-11 12:00:00 18.1 27 Este 35 Este 0 -- -- 54
2020-03-11 11:00:00 18 29 Este 32 Este 0 -- -- 51
2020-03-11 10:00:00 18.3 22 Este 27 Este 0 -- -- 47
2020-03-11 09:00:00 17.6 14 Este 19 Nordeste 0 -- -- 53
2020-03-11 08:00:00 16.4 10 Nordeste 17 Nordeste 0 -- -- 50
2020-03-11 07:00:00 15.9 10 Nordeste 22 Nordeste 0 -- -- 46
2020-03-11 06:00:00 16.6 17 Nordeste 22 Nordeste 0 -- -- 43
2020-03-11 05:00:00 15.9 10 Nordeste 15 Norte 0 -- -- 45
2020-03-11 04:00:00 16 10 Norte 14 Norte 0 -- -- 44
2020-03-11 03:00:00 16.2 9 Norte 16 Norte 0 -- -- 44
2020-03-11 02:00:00 16.6 13 Norte 19 Nordeste 0 -- -- 41
2020-03-11 01:00:00 16.5 8 Norte 15 Norte 0 -- -- 43
2020-03-11 00:00:00 17 11 Nordeste 18 Nordeste 0 -- -- 42